KTXEAGLE7 Weather Reports


time (UTC)temp
C
wind
direction
speed
KPH
gust
KPH
rain 1hr
cm
rain 24hr
cm
rain mn
cm
humidity
%
barometer
mb
20260502190034 21 5 6.4 20.9 0.00 2.11 0.00 63 1021.1
20260502184535 21 36 9.7 27.4 0.00 2.11 0.00 61 1021.2
20260502183032 21 71 9.7 22.5 0.00 2.11 0.00 62 1021.4
20260502181531 21 316 8.0 20.9 0.00 2.11 0.00 63 1021.5
20260502163017 18 38 8.0 25.7 0.00 3.17 0.00 70 1022.0
20260502161514 18 17 9.7 25.7 0.00 3.17 0.00 71 1022.1
20260502151504 16 46 12.9 25.7 0.00 4.04 0.00 77 1021.5
20260502123036 11 355 4.8 14.5 0.00 5.03 0.00 96 1020.1
20260502121543 11 24 6.4 14.5 0.00 5.03 0.00 96 1019.8
20260502114529 11 307 3.2 17.7 0.00 5.05 0.00 96 1019.4
20260502113029 11 35 4.8 11.3 0.00 5.05 0.00 96 1019.3
20260502111525 11 50 4.8 17.7 0.00 5.05 0.00 96 1019.2
20260502110023 11 342 4.8 14.5 0.00 5.08 0.00 96 1018.9
20260502104537 11 15 6.4 12.9 0.00 5.08 0.00 96 1018.9
20260502103025 11 342 4.8 12.9 0.00 5.08 0.00 95 1018.8
20260502101516 11 15 4.8 11.3 0.00 5.08 0.00 95 1018.7
20260502091511 12 30 3.2 12.9 0.00 5.28 0.00 94 1017.6
20260502070058 13 37 8.0 19.3 0.00 6.60 0.00 94 1017.0
20260502064606 13 44 6.4 24.1 0.00 7.09 0.00 94 1016.9
20260502063052 13 30 8.0 24.1 0.00 7.09 0.00 94 1016.9
20260502061550 13 40 8.0 22.5 0.00 7.09 0.00 94 1017.0
20260502060050 13 355 9.7 27.4 0.00 7.09 0.00 94 1017.0
20260502054547 13 5 8.0 24.1 0.00 7.11 0.00 94 1017.0
20260502053044 13 355 9.7 27.4 0.00 7.11 0.00 95 1016.9
20260502051559 13 56 8.0 22.5 0.00 7.11 0.00 96 1016.9
20260502050038 13 49 11.3 25.7 0.00 7.72 7.11 96 1016.6
20260502044536 13 22 8.0 22.5 0.00 7.72 7.11 97 1016.3
20260502043040 13 69 11.3 25.7 0.00 7.72 7.11 97 1016.3
20260502041534 13 43 9.7 25.7 0.00 7.72 7.11 97 1016.2
20260502040032 13 86 9.7 25.7 0.00 8.08 7.11 97 1016.2
20260502034542 13 340 8.0 22.5 0.00 8.08 7.11 98 1016.4
20260502033042 13 25 8.0 22.5 0.00 8.08 7.11 98 1016.0
20260502031528 13 23 9.7 32.2 0.00 8.08 7.11 98 1015.9
20260502030026 13 73 9.7 20.9 0.00 8.08 7.11 98 1015.8
20260502024528 13 351 6.4 20.9 0.00 8.08 7.11 98 1015.6
20260502023022 13 48 6.4 25.7 0.00 8.08 7.11 98 1015.4
20260502021517 13 34 9.7 24.1 0.00 8.08 7.11 98 1014.8
20260502020013 13 65 11.3 24.1 0.05 8.08 7.11 98 1014.2
20260502014513 14 15 8.0 20.9 0.08 8.08 7.11 98 1014.0
20260502013009 14 355 6.4 19.3 0.10 8.08 7.11 99 1013.9
20260502011507 14 36 9.7 27.4 0.20 8.08 7.11 99 1013.6
20260502010004 14 30 9.7 32.2 0.15 8.03 7.06 99 1013.3
20260502004504 15 76 8.0 24.1 0.15 8.00 7.04 98 1013.0
20260502003100 15 337 9.7 22.5 0.20 7.98 7.01 99 1013.6
20260502001559 15 5 8.0 25.7 0.20 7.87 6.91 98 1013.5
20260502000055 15 321 6.4 25.7 0.46 7.87 6.91 99 1013.7
20260501234558 15 338 8.0 22.5 0.58 7.85 6.88 99 1012.7
20260501233058 15 13 9.7 22.5 0.51 7.75 6.78 98 1012.9
20260501231558 15 315 4.8 19.3 0.61 7.67 6.71 99 1012.8
20260501230050 15 330 11.3 22.5 0.46 7.42 6.45 98 1013.4
20260501224549 16 36 8.0 27.4 0.30 7.26 6.30 99 1010.9
20260501223048 15 55 12.9 29.0 0.28 7.24 6.27 98 1010.2
20260501221547 16 45 12.9 27.4 0.10 7.06 6.10 99 1010.2
20260501220048 16 13 8.0 25.7 0.00 6.96 5.99 99 1010.4
20260501214557 16 44 11.3 25.7 0.00 6.96 5.99 98 1010.2
20260501213049 16 51 9.7 25.7 0.03 6.96 5.99 99 1010.5
20260501211543 16 331 4.8 19.3 0.48 6.96 5.99 99 1010.8
20260501210042 17 349 6.4 22.5 0.56 6.96 5.99 99 1010.8
20260501204542 17 59 8.0 24.1 0.61 6.96 5.99 99 1010.7
20260501203041 16 42 8.0 16.1 0.64 6.93 5.97 99 1010.6
20260501201546 16 17 6.4 19.3 0.18 6.45 5.51 99 1010.7
20260501200040 16 315 11.3 20.9 0.10 6.40 5.44 99 1009.9
20260501194549 16 35 9.7 22.5 0.05 6.32 5.36 99 1009.4
20260501193039 16 61 9.7 20.9 0.03 6.30 5.33 99 1009.2
20260501191539 16 10 8.0 20.9 0.30 6.30 5.33 99 1010.3